Location: Gauravaram
(16.6995°N, 80.5417°E)
Time: 04:13:19
(UTC+00:00)

Cosmos 1953 - Pass Details

Date: 03 August 2024
Orbit: 505 x 524 km, 82.5° (Epoch: 10 September)

Event Time Altitude Azimuth Distance (km) Brightness Sun altitude
Exits shadow 23:39:40 - 215° (SW) 1,810 4.5 -9.7°
Reaches altitude 10° 23:39:56 10° 217° (SW) 1,709 4.3 -9.6°
Maximum altitude 23:43:09 27° 277° (W) 994 3.1 -8.9°
Drops below altitude 10° 23:46:23 10° 336° (NNW) 1,716 4.8 -8.2°
Sets 23:48:44 0° 349° (NNW) 2,605 5.9 -7.7°
